Погода в Бершади

Украина / Винницкая область     48°22′22″N   29°31′31″E
темп.,
°C
ветер,
м/с
пор.,
м/с
влажн.,
%
обл.,
%
осадки,
мм/ч
давл.,
гПа
погр.,
м
1 марта, пн
пн123:00+1сз4997100 0.4 1024472
02:00+1зсз2598100 1.9 1024223
05:00+1с3698100 0.6 1024267
08:00+1ссв4797100 1.0 1026387
11:00+1ссв4791100 0.1 1029585
14:00+2ссв577799 0.2 1030777
17:00+2с467888 0.1 1031650
20:00+1ссз368194 0.1 1032352
2 марта, вт
вт223:00+1сз2485100 0.1 1033130
02:00+1зсз368799 0.1 1033198
05:000з358780 0.0 1031129
08:00+1з5108552 0.0 1031372
11:00+5з697592 0.0 1028490
14:00+8з7116554 0.0 1026778
17:00+8з7136328 0.0 1023683
20:00+6сз6157114 0.0 1023682
3 марта, ср
ср323:00+4сз6157944 0.0 1024723
02:00+4с7118045 0.0 1026851
05:00+3ссз51076100 0.0 1027714
08:00+2ссз598390 0.0 1029491
11:00+5ссз46650 0.0 1029920
14:00+7ссз45520 0.0 10291099
17:00+6сз34530 0.0 1028946
20:00+3зсз22652 0.0 102922
4 марта, чт
чт423:00+2зюз226765 0.0 102722
02:00+1юз347156 0.0 102655
05:00+1ююз36720 0.0 1023113
08:00+2ююз49710 0.0 1021277
11:00+7ююз58650 0.0 1018453
14:00+10юз58624 0.0 1016637
17:00+9зюз37631 0.0 1013278
20:00+5зюз347112 0.0 101360
5 марта, пт
пт523:00+4зюз34700 0.0 101347
02:00+4з23740 0.0 101329
05:00+3зюз237567 0.0 101226
08:00+4ююз356969 0.0 101195
11:00+10юз585449 0.0 1010521
14:00+13юз684653 0.0 1008819
17:00+11юз365491 0.0 1007157
20:00+8зсз356294 0.0 100892